Flag for Ecuador Weather past 2 weeks in Guayaquil, Ecuador

Now
82 °F

Broken clouds.


Feels Like: 85 °F
Forecast: 74 / 90 °F
Wind: 6 mph from Southeast

Location: Guayaquil / Simon Bolivar

Current Time: Jul 22, 2014 at 5:39:12 PM

Latest Report: Jul 22, 2014 at 12:00 PM


Visibility: N/A

Pressure: 29.80 "Hg

Humidity: 62%

Dew point: 68 °F

Location of GuayaquilLocation

Historic Weather in Guayaquil — Graph

°F

Guayaquil temperature yesterday

Maximum temperature yesterday: 88 °F (at 3:00 PM)
Minimum temperature yesterday: 72 °F (at 1:00 AM)
Average temperature yesterday: 78 °F

Past Weeks' High & Low Weather Summary

 TemperatureHumidityPressure
High91 °F (Jul 10, 3:00 PM)88% (Jul 22, 4:00 AM)29.92 "Hg (Jul 22, 4:00 AM)
Low70 °F (Jul 22, 4:00 AM)49% (Jul 10, 3:00 PM)29.65 "Hg (Jul 10, 4:00 PM)
Average78 °F70%29.83 "Hg
* Reported Jul 7 12:00 Noon — Jul 22 12:00 Noon, Guayaquil, Weather by CustomWeather, © 2014

Note: Actual official high and low records may vary slightly from our data, if they occured in-between our weather recording intervals... More about our weather records

Advertising

Guayaquil weather history for previous 24 hours

 ConditionsComfort  
Time TempWeatherWind HumidityBarometerVisibility
12:00 PM
Jul 22
82 °FBroken clouds.6 mph62%29.80 "HgN/A
11:00 AM82 °FPartly sunny.1 mph62%29.83 "HgN/A
10:00 AM79 °FScattered clouds.6 mph65%29.86 "HgN/A
9:00 AM77 °FPartly sunny.3 mph69%29.86 "HgN/A
8:00 AM73 °FPartly sunny.3 mph78%29.86 "HgN/A
7:00 AM72 °FPartly sunny.7 mph83%29.83 "HgN/A
6:00 AM72 °FPassing clouds.7 mph83%29.80 "HgN/A
5:00 AM72 °FOvercast.10 mph83%29.80 "HgN/A
4:00 AM70 °FPassing clouds.13 mph88%29.80 "HgN/A
2:00 AM72 °FClear.5 mph83%29.80 "Hg10 mi
1:00 AM72 °FClear.5 mph83%29.80 "Hg10 mi
12:00 AM73 °FClear.3 mph78%29.80 "Hg10 mi
11:00 PM
Jul 21
73 °FClear.6 mph78%29.80 "Hg10 mi
10:00 PM75 °FClear.7 mph74%29.83 "Hg10 mi
9:00 PM77 °FClear.12 mph65%29.83 "Hg10 mi
8:00 PM79 °FClear.13 mph65%29.80 "Hg10 mi
7:00 PM79 °FClear.12 mph70%29.80 "Hg10 mi
6:00 PM82 °FPassing clouds.7 mph62%29.77 "HgN/A
5:00 PM84 °FPassing clouds.8 mph62%29.77 "HgN/A
Weather by CustomWeather, © 2014

See weather overviewHow to use our weather pages